Location: Bowman Observatory
(41.0326°N, 73.6210°W)
Time: 06:59:48
(UTC-04:00)

Cosmos 2297 - Visible Passes

Search period start: 19 April 2015 00:00
Search period end: 29 April 2015 00:00
Orbit: 835 x 860 km, 71.0° (Epoch: 18 April)

Date Brightness Start Highest point End Pass type
(mag) Time Alt. Az. Time Alt. Az. Time Alt. Az.
19 Apr 5.5 20:03:34 10° ESE 20:04:26 10° E 20:05:44 10° E visible
19 Apr 3.6 21:42:08 10° SSW 21:47:51 84° ESE 21:53:38 10° NNE visible
19 Apr 6.3 23:29:12 10° W 23:32:53 17° NW 23:36:24 10° N visible
20 Apr 3.6 21:28:51 10° SSW 21:34:34 83° ESE 21:40:21 10° NNE visible
20 Apr 6.3 23:15:51 10° W 23:19:35 17° NW 23:23:08 10° N visible
21 Apr 3.6 21:15:35 10° SSW 21:21:17 81° ESE 21:27:04 10° NNE visible
21 Apr 6.4 23:02:29 10° W 23:06:17 17° NW 23:09:54 10° N visible
22 Apr 3.6 21:02:18 10° SSW 21:08:00 80° ESE 21:13:47 10° NNE visible
22 Apr 6.4 22:49:08 10° W 22:52:59 18° NW 22:56:39 10° N visible
23 Apr 3.7 20:49:01 10° SSW 20:54:43 78° ESE 21:00:30 10° NNE visible
23 Apr 6.4 22:35:47 10° W 22:39:41 18° NW 22:43:24 10° N visible
24 Apr 3.7 20:35:45 10° SSW 20:41:26 77° ESE 20:47:12 10° NNE visible
24 Apr 6.4 22:22:25 10° W 22:26:22 18° NW 22:30:09 10° N visible
25 Apr 5.6 05:30:49 10° N 05:36:04 36° ENE 05:41:20 10° SE visible
25 Apr 3.7 20:22:28 10° SSW 20:28:09 75° ESE 20:33:55 10° NNE visible
25 Apr 6.5 22:09:04 10° W 22:13:04 18° NW 22:16:54 10° N visible
26 Apr 5.6 05:17:33 10° N 05:22:47 36° ENE 05:28:01 10° SE visible
26 Apr 3.7 20:09:11 10° SSW 20:14:52 74° ESE 20:20:38 10° NNE visible
26 Apr 6.5 21:55:43 10° W 21:59:46 19° NW 22:03:39 10° N visible
27 Apr 5.6 05:04:16 10° N 05:09:29 35° ENE 05:14:42 10° ESE visible
27 Apr 6.5 21:42:22 10° W 21:46:27 19° NW 21:50:24 10° N visible
28 Apr 5.6 04:51:00 10° N 04:56:11 35° ENE 05:01:23 10° ESE visible
28 Apr 6.6 21:29:01 10° W 21:33:09 19° NW 21:37:09 10° N visible
